| time (UTC) | temp F | wind direction | speed knots | gust knots | rain 1hr in | rain 24hr in | rain mn in | humidity % | barometer mb |
| 20260507041235 | 56 | 214 | 0.0 | 0.0 | 0.00 | 0.00 | 0.00 | 91 | 1019.5 |
| 20260507040734 | 56 | 214 | 0.0 | 0.0 | 0.00 | 0.00 | 0.00 | 90 | 1019.4 |
| 20260507040235 | 56 | 214 | 0.0 | 0.0 | 0.00 | 0.00 | 0.00 | 90 | 1019.4 |
| 20260507035734 | 57 | 214 | 0.0 | 0.0 | 0.00 | 0.00 | 0.00 | 90 | 1019.3 |
| 20260507035235 | 57 | 214 | 0.0 | 0.0 | 0.00 | 0.00 | 0.00 | 90 | 1019.3 |
| 20260507034235 | 58 | 214 | 0.0 | 0.0 | 0.00 | 0.00 | 0.00 | 89 | 1019.2 |
| 20260507033234 | 58 | 214 | 0.0 | 0.0 | 0.00 | 0.00 | 0.00 | 89 | 1019.1 |
| 20260507032735 | 58 | 214 | 0.0 | 0.0 | 0.00 | 0.00 | 0.00 | 89 | 1019.0 |
| 20260507032235 | 59 | 214 | 0.0 | 0.0 | 0.00 | 0.00 | 0.00 | 88 | 1019.0 |
| 20260507031733 | 59 | 214 | 0.0 | 0.0 | 0.00 | 0.00 | 0.00 | 88 | 1018.9 |
| 20260507031230 | 59 | 214 | 0.0 | 0.0 | 0.00 | 0.00 | 0.00 | 88 | 1018.8 |
| 20260507030730 | 60 | 214 | 0.0 | 0.0 | 0.00 | 0.00 | 0.00 | 87 | 1018.8 |
| 20260507030228 | 60 | 214 | 0.0 | 0.0 | 0.00 | 0.00 | 0.00 | 87 | 1018.7 |
| 20260507025727 | 60 | 214 | 0.0 | 0.0 | 0.00 | 0.00 | 0.00 | 86 | 1018.7 |
| 20260507025227 | 60 | 214 | 0.0 | 0.0 | 0.00 | 0.00 | 0.00 | 86 | 1018.6 |
| 20260507024726 | 61 | 214 | 0.0 | 0.0 | 0.00 | 0.00 | 0.00 | 86 | 1018.6 |
| 20260507024225 | 61 | 214 | 0.0 | 0.0 | 0.00 | 0.00 | 0.00 | 85 | 1018.4 |
| 20260507023724 | 61 | 214 | 0.0 | 0.0 | 0.00 | 0.00 | 0.00 | 85 | 1018.4 |
| 20260507023224 | 62 | 214 | 0.0 | 0.0 | 0.00 | 0.00 | 0.00 | 84 | 1018.3 |
| 20260507022722 | 62 | 214 | 0.0 | 0.0 | 0.00 | 0.00 | 0.00 | 84 | 1018.3 |
| 20260507021722 | 62 | 214 | 0.0 | 0.0 | 0.00 | 0.00 | 0.00 | 83 | 1018.2 |
| 20260507021222 | 63 | 214 | 0.0 | 0.0 | 0.00 | 0.00 | 0.00 | 82 | 1018.2 |
| 20260507020722 | 63 | 214 | 0.0 | 0.0 | 0.00 | 0.00 | 0.00 | 82 | 1018.2 |
| 20260507020222 | 63 | 214 | 0.0 | 0.0 | 0.00 | 0.00 | 0.00 | 82 | 1018.2 |
| 20260507015722 | 64 | 214 | 0.0 | 0.0 | 0.00 | 0.00 | 0.00 | 81 | 1018.3 |
| 20260507015222 | 64 | 214 | 0.0 | 0.0 | 0.00 | 0.00 | 0.00 | 80 | 1018.2 |
| 20260507014722 | 65 | 214 | 0.0 | 0.0 | 0.00 | 0.00 | 0.00 | 79 | 1018.3 |
| 20260507013722 | 65 | 226 | 0.0 | 0.0 | 0.00 | 0.00 | 0.00 | 77 | 1018.2 |
| 20260507012722 | 66 | 85 | 0.0 | 0.0 | 0.00 | 0.00 | 0.00 | 76 | 1018.1 |
| 20260507012222 | 67 | 215 | 0.0 | 0.0 | 0.00 | 0.00 | 0.00 | 76 | 1018.1 |
| 20260507011722 | 67 | 215 | 0.0 | 0.9 | 0.00 | 0.00 | 0.00 | 74 | 1018.1 |
| 20260507011223 | 67 | 214 | 0.0 | 0.9 | 0.00 | 0.00 | 0.00 | 74 | 1018.0 |
| 20260507010722 | 68 | 239 | 0.0 | 0.0 | 0.00 | 0.00 | 0.00 | 73 | 1018.2 |
| 20260507010223 | 68 | 302 | 0.0 | 0.0 | 0.00 | 0.00 | 0.00 | 73 | 1018.0 |
| 20260507005720 | 69 | 319 | 0.0 | 0.0 | 0.00 | 0.00 | 0.00 | 72 | 1018.1 |
| 20260507005220 | 69 | 120 | 0.0 | 0.0 | 0.00 | 0.00 | 0.00 | 69 | 1018.0 |
| 20260507004720 | 69 | 96 | 0.0 | 0.0 | 0.00 | 0.00 | 0.00 | 70 | 1018.0 |
| 20260507004220 | 69 | 226 | 0.0 | 0.0 | 0.00 | 0.00 | 0.00 | 70 | 1018.0 |
| 20260507003720 | 69 | 65 | 0.0 | 0.0 | 0.00 | 0.00 | 0.00 | 68 | 1018.0 |
| 20260507003220 | 69 | 20 | 0.0 | 0.0 | 0.00 | 0.00 | 0.00 | 68 | 1017.9 |
| 20260507002720 | 69 | 327 | 0.0 | 0.0 | 0.00 | 0.00 | 0.00 | 67 | 1018.0 |
| 20260507001720 | 70 | 243 | 0.0 | 0.9 | 0.00 | 0.00 | 0.00 | 66 | 1018.0 |
| 20260507001224 | 70 | 27 | 0.0 | 0.9 | 0.00 | 0.00 | 0.00 | 65 | 1018.0 |
| 20260507000718 | 70 | 20 | 0.0 | 0.0 | 0.00 | 0.00 | 0.00 | 65 | 1017.9 |
| 20260507000219 | 71 | 45 | 0.0 | 0.0 | 0.00 | 0.00 | 0.00 | 63 | 1017.9 |
| 20260506235717 | 71 | 91 | 0.0 | 2.6 | 0.00 | 0.00 | 0.00 | 64 | 1017.9 |
| 20260506235217 | 71 | 170 | 0.0 | 2.6 | 0.00 | 0.00 | 0.00 | 64 | 1017.9 |
| 20260506234718 | 71 | 36 | 0.0 | 0.0 | 0.00 | 0.00 | 0.00 | 64 | 1017.9 |
| 20260506234218 | 71 | 20 | 0.0 | 0.0 | 0.00 | 0.00 | 0.00 | 63 | 1017.8 |
| 20260506233718 | 72 | 125 | 0.0 | 0.0 | 0.00 | 0.00 | 0.00 | 63 | 1017.8 |
| 20260506233218 | 72 | 28 | 0.0 | 0.0 | 0.00 | 0.00 | 0.00 | 64 | 1017.9 |
| 20260506232718 | 72 | 25 | 0.0 | 0.0 | 0.00 | 0.00 | 0.00 | 62 | 1017.9 |
| 20260506232217 | 72 | 326 | 0.0 | 0.0 | 0.00 | 0.00 | 0.00 | 62 | 1018.0 |
| 20260506231718 | 71 | 203 | 0.0 | 0.0 | 0.00 | 0.00 | 0.00 | 63 | 1018.0 |
| 20260506230717 | 73 | 32 | 0.0 | 0.0 | 0.00 | 0.00 | 0.00 | 62 | 1018.1 |
| 20260506225716 | 73 | 306 | 0.0 | 0.0 | 0.00 | 0.00 | 0.00 | 62 | 1018.2 |
| 20260506225216 | 73 | 104 | 0.0 | 0.0 | 0.00 | 0.00 | 0.00 | 61 | 1018.3 |
| 20260506224714 | 73 | 9 | 0.0 | 0.0 | 0.00 | 0.00 | 0.00 | 61 | 1018.3 |
| 20260506224212 | 73 | 174 | 0.0 | 0.0 | 0.00 | 0.00 | 0.00 | 60 | 1018.5 |
| 20260506223711 | 73 | 212 | 0.0 | 0.0 | 0.00 | 0.00 | 0.00 | 61 | 1018.4 |
| 20260506223210 | 73 | 259 | 0.0 | 0.0 | 0.00 | 0.00 | 0.00 | 61 | 1018.4 |
| 20260506222708 | 73 | 89 | 0.0 | 0.0 | 0.00 | 0.00 | 0.00 | 61 | 1018.5 |
| 20260506221708 | 72 | 25 | 0.0 | 0.0 | 0.00 | 0.00 | 0.00 | 62 | 1018.5 |
| 20260506221207 | 73 | 24 | 0.0 | 0.0 | 0.00 | 0.00 | 0.00 | 61 | 1018.5 |
| 20260506220708 | 72 | 135 | 0.0 | 0.9 | 0.00 | 0.00 | 0.00 | 61 | 1018.6 |
| 20260506220208 | 73 | 17 | 0.0 | 0.9 | 0.00 | 0.00 | 0.00 | 63 | 1018.7 |
| 20260506215208 | 73 | 275 | 0.0 | 0.0 | 0.00 | 0.00 | 0.00 | 62 | 1018.8 |
| 20260506214705 | 72 | 224 | 0.0 | 0.0 | 0.00 | 0.00 | 0.00 | 63 | 1018.9 |
| 20260506214206 | 72 | 323 | 0.0 | 0.0 | 0.00 | 0.00 | 0.00 | 62 | 1019.0 |
| 20260506213705 | 72 | 218 | 0.0 | 0.0 | 0.00 | 0.00 | 0.00 | 63 | 1019.1 |
| 20260506213205 | 71 | 124 | 0.0 | 0.9 | 0.00 | 0.00 | 0.00 | 63 | 1019.3 |
| 20260506212706 | 71 | 114 | 0.0 | 0.9 | 0.00 | 0.00 | 0.00 | 64 | 1019.1 |
| 20260506212203 | 71 | 113 | 0.0 | 0.9 | 0.00 | 0.00 | 0.00 | 63 | 1019.3 |
| 20260506211702 | 72 | 56 | 0.0 | 0.0 | 0.00 | 0.00 | 0.00 | 61 | 1019.4 |
| 20260506211202 | 72 | 117 | 0.0 | 0.0 | 0.00 | 0.00 | 0.00 | 63 | 1019.4 |
| 20260506210159 | 70 | 211 | 0.0 | 0.0 | 0.00 | 0.00 | 0.00 | 65 | 1019.5 |
| 20260506205659 | 71 | 217 | 0.0 | 0.0 | 0.00 | 0.00 | 0.00 | 63 | 1019.5 |
| 20260506205159 | 71 | 188 | 0.0 | 0.0 | 0.00 | 0.00 | 0.00 | 63 | 1019.5 |
| 20260506204659 | 71 | 121 | 0.0 | 0.0 | 0.00 | 0.00 | 0.00 | 64 | 1019.5 |
| 20260506204200 | 71 | 243 | 0.0 | 0.9 | 0.00 | 0.00 | 0.00 | 64 | 1019.5 |
| 20260506203159 | 71 | 206 | 0.0 | 0.9 | 0.00 | 0.00 | 0.00 | 64 | 1019.4 |
| 20260506202700 | 70 | 153 | 0.0 | 0.0 | 0.00 | 0.00 | 0.00 | 65 | 1019.6 |
| 20260506202200 | 70 | 158 | 0.0 | 0.0 | 0.00 | 0.00 | 0.00 | 65 | 1019.6 |
| 20260506201659 | 70 | 333 | 0.0 | 0.0 | 0.00 | 0.00 | 0.00 | 64 | 1019.7 |
| 20260506200659 | 69 | 1 | 0.0 | 0.9 | 0.00 | 0.00 | 0.00 | 66 | 1019.8 |
| 20260506200159 | 69 | 111 | 0.0 | 0.9 | 0.00 | 0.00 | 0.00 | 67 | 1019.8 |
| 20260506195659 | 69 | 42 | 0.0 | 0.9 | 0.00 | 0.00 | 0.00 | 66 | 1019.8 |
| 20260506194157 | 68 | 4 | 0.0 | 0.9 | 0.00 | 0.00 | 0.00 | 67 | 1019.9 |
| 20260506193658 | 68 | 226 | 0.0 | 0.9 | 0.00 | 0.00 | 0.00 | 69 | 1019.9 |
| 20260506193157 | 67 | 325 | 0.0 | 0.0 | 0.00 | 0.00 | 0.00 | 67 | 1019.9 |
| 20260506192657 | 67 | 349 | 0.0 | 0.0 | 0.00 | 0.00 | 0.00 | 69 | 1019.8 |
| 20260506192155 | 68 | 21 | 0.0 | 0.9 | 0.00 | 0.00 | 0.00 | 68 | 1020.0 |
| 20260506191653 | 67 | 245 | 0.0 | 0.9 | 0.00 | 0.00 | 0.00 | 69 | 1019.8 |
| 20260506191154 | 67 | 247 | 0.0 | 0.9 | 0.00 | 0.00 | 0.00 | 69 | 1020.0 |
| 20260506190651 | 67 | 278 | 0.0 | 0.0 | 0.00 | 0.00 | 0.00 | 72 | 1020.0 |
| 20260506190150 | 66 | 114 | 0.0 | 0.0 | 0.00 | 0.00 | 0.00 | 71 | 1020.1 |
| 20260506185649 | 67 | 14 | 0.0 | 0.0 | 0.00 | 0.00 | 0.00 | 70 | 1020.0 |
| 20260506185149 | 66 | 27 | 0.0 | 0.0 | 0.00 | 0.00 | 0.00 | 71 | 1020.0 |
| 20260506184650 | 66 | 288 | 0.0 | 0.0 | 0.00 | 0.00 | 0.00 | 73 | 1020.1 |
| 20260506184150 | 65 | 49 | 0.0 | 0.9 | 0.00 | 0.00 | 0.00 | 73 | 1020.1 |
| 20260506183649 | 65 | 75 | 0.0 | 0.9 | 0.00 | 0.00 | 0.00 | 73 | 1020.1 |
| 20260506183148 | 65 | 72 | 0.0 | 0.0 | 0.00 | 0.00 | 0.00 | 72 | 1020.3 |
| 20260506182647 | 65 | 71 | 0.0 | 0.0 | 0.00 | 0.00 | 0.00 | 73 | 1020.1 |
| 20260506182148 | 65 | 20 | 0.0 | 0.0 | 0.00 | 0.00 | 0.00 | 74 | 1020.2 |
| 20260506181647 | 65 | 25 | 0.0 | 0.0 | 0.00 | 0.00 | 0.00 | 73 | 1020.2 |
| 20260506181147 | 65 | 100 | 0.0 | 0.0 | 0.00 | 0.00 | 0.00 | 73 | 1020.2 |
| 20260506180647 | 64 | 57 | 0.0 | 0.0 | 0.00 | 0.00 | 0.00 | 75 | 1020.3 |
| 20260506180147 | 64 | 139 | 0.0 | 0.9 | 0.00 | 0.00 | 0.00 | 76 | 1020.3 |
| 20260506175645 | 63 | 315 | 0.0 | 0.9 | 0.00 | 0.00 | 0.00 | 76 | 1020.2 |
| 20260506175145 | 63 | 221 | 0.0 | 0.0 | 0.00 | 0.00 | 0.00 | 76 | 1020.3 |
| 20260506174145 | 62 | 228 | 0.0 | 0.0 | 0.00 | 0.00 | 0.00 | 78 | 1020.3 |
| 20260506173643 | 60 | 84 | 0.0 | 0.0 | 0.00 | 0.00 | 0.00 | 80 | 1020.3 |
| 20260506173143 | 59 | 91 | 0.0 | 0.0 | 0.00 | 0.00 | 0.00 | 82 | 1020.3 |
| 20260506172643 | 59 | 29 | 0.0 | 0.0 | 0.00 | 0.00 | 0.00 | 81 | 1020.3 |
| 20260506171643 | 59 | 234 | 0.0 | 0.9 | 0.00 | 0.00 | 0.00 | 83 | 1020.4 |
| 20260506171144 | 58 | 233 | 0.0 | 0.9 | 0.00 | 0.00 | 0.00 | 83 | 1020.4 |
| 20260506170643 | 58 | 18 | 0.0 | 0.0 | 0.00 | 0.00 | 0.00 | 84 | 1020.7 |
| 20260506170143 | 57 | 322 | 0.0 | 0.0 | 0.00 | 0.00 | 0.00 | 86 | 1020.6 |
| 20260506165641 | 56 | 24 | 0.0 | 0.0 | 0.00 | 0.00 | 0.00 | 86 | 1020.4 |
| 20260506165141 | 56 | 352 | 0.0 | 0.0 | 0.00 | 0.00 | 0.00 | 87 | 1020.7 |
| 20260506164639 | 56 | 243 | 0.0 | 0.0 | 0.00 | 0.00 | 0.00 | 87 | 1020.7 |
| 20260506164139 | 56 | 297 | 0.0 | 0.0 | 0.00 | 0.00 | 0.00 | 88 | 1020.6 |
| 20260506163639 | 55 | 297 | 0.0 | 0.0 | 0.00 | 0.00 | 0.00 | 88 | 1020.6 |
| 20260506163137 | 55 | 298 | 0.0 | 0.0 | 0.00 | 0.00 | 0.00 | 89 | 1020.4 |
| 20260506162637 | 55 | 307 | 0.0 | 0.0 | 0.00 | 0.00 | 0.00 | 89 | 1020.7 |
| 20260506162137 | 55 | 321 | 0.0 | 0.0 | 0.00 | 0.00 | 0.00 | 90 | 1020.6 |
| 20260506161637 | 54 | 321 | 0.0 | 0.0 | 0.00 | 0.00 | 0.00 | 89 | 1020.6 |
| 20260506161136 | 54 | 6 | 0.0 | 0.0 | 0.00 | 0.00 | 0.00 | 90 | 1020.6 |
| 20260506160636 | 54 | 30 | 0.0 | 0.0 | 0.00 | 0.00 | 0.00 | 89 | 1020.4 |
| 20260506160137 | 55 | 338 | 0.0 | 0.0 | 0.00 | 0.00 | 0.00 | 88 | 1020.4 |
| 20260506155136 | 55 | 337 | 0.0 | 0.0 | 0.00 | 0.00 | 0.00 | 88 | 1020.6 |
| 20260506154134 | 54 | 322 | 0.0 | 0.0 | 0.00 | 0.00 | 0.00 | 89 | 1020.6 |
| 20260506153635 | 54 | 316 | 0.0 | 0.0 | 0.00 | 0.00 | 0.00 | 89 | 1020.4 |
| 20260506153133 | 54 | 35 | 0.0 | 0.0 | 0.00 | 0.00 | 0.00 | 89 | 1020.4 |
| 20260506152633 | 54 | 340 | 0.0 | 0.0 | 0.00 | 0.00 | 0.00 | 90 | 1020.3 |
| 20260506152133 | 54 | 309 | 0.0 | 0.0 | 0.00 | 0.00 | 0.00 | 90 | 1020.3 |
| 20260506151633 | 54 | 30 | 0.0 | 0.0 | 0.00 | 0.00 | 0.00 | 90 | 1020.4 |
| 20260506150630 | 54 | 129 | 0.0 | 0.0 | 0.00 | 0.00 | 0.00 | 92 | 1020.4 |
| 20260506150131 | 53 | 129 | 0.0 | 0.0 | 0.00 | 0.00 | 0.00 | 92 | 1020.4 |
| 20260506145629 | 53 | 324 | 0.0 | 0.0 | 0.00 | 0.00 | 0.00 | 93 | 1020.4 |
| 20260506145126 | 53 | 324 | 0.0 | 0.0 | 0.00 | 0.00 | 0.00 | 93 | 1020.4 |
| 20260506143626 | 53 | 221 | 0.0 | 0.0 | 0.00 | 0.00 | 0.00 | 94 | 1020.3 |
| 20260506143124 | 52 | 214 | 0.0 | 0.0 | 0.00 | 0.00 | 0.00 | 94 | 1020.3 |
| 20260506142625 | 52 | 214 | 0.0 | 0.0 | 0.00 | 0.00 | 0.00 | 94 | 1020.3 |
| 20260506142123 | 52 | 214 | 0.0 | 0.0 | 0.00 | 0.00 | 0.00 | 94 | 1020.2 |
| 20260506141622 | 52 | 214 | 0.0 | 0.0 | 0.00 | 0.00 | 0.00 | 94 | 1020.2 |
| 20260506141123 | 52 | 214 | 0.0 | 0.0 | 0.00 | 0.00 | 0.00 | 94 | 1020.2 |
| 20260506140622 | 52 | 214 | 0.0 | 0.0 | 0.00 | 0.00 | 0.00 | 94 | 1020.1 |
| 20260506140121 | 52 | 214 | 0.0 | 0.0 | 0.00 | 0.00 | 0.00 | 94 | 1020.1 |
| 20260506135619 | 51 | 214 | 0.0 | 0.0 | 0.00 | 0.00 | 0.00 | 94 | 1020.1 |
| 20260506134618 | 51 | 214 | 0.0 | 0.0 | 0.00 | 0.00 | 0.00 | 94 | 1019.9 |
| 20260506134117 | 51 | 214 | 0.0 | 0.0 | 0.00 | 0.00 | 0.00 | 94 | 1019.8 |
| 20260506133616 | 51 | 214 | 0.0 | 0.0 | 0.00 | 0.00 | 0.00 | 94 | 1019.7 |
| 20260506133114 | 51 | 214 | 0.0 | 0.0 | 0.00 | 0.00 | 0.00 | 94 | 1019.8 |
| 20260506132614 | 51 | 214 | 0.0 | 0.0 | 0.00 | 0.00 | 0.00 | 94 | 1019.7 |
| 20260506132115 | 51 | 214 | 0.0 | 0.0 | 0.00 | 0.00 | 0.00 | 94 | 1019.6 |
| 20260506131614 | 51 | 214 | 0.0 | 0.0 | 0.00 | 0.00 | 0.00 | 94 | 1019.6 |
| 20260506131113 | 51 | 214 | 0.0 | 0.0 | 0.00 | 0.00 | 0.00 | 94 | 1019.5 |
| 20260506130613 | 51 | 214 | 0.0 | 0.0 | 0.00 | 0.00 | 0.00 | 94 | 1019.4 |
| 20260506130112 | 51 | 214 | 0.0 | 0.0 | 0.00 | 0.00 | 0.00 | 94 | 1019.4 |
| 20260506125613 | 51 | 214 | 0.0 | 0.0 | 0.00 | 0.00 | 0.00 | 94 | 1019.5 |
| 20260506124612 | 51 | 214 | 0.0 | 0.0 | 0.00 | 0.00 | 0.00 | 94 | 1019.4 |
| 20260506123613 | 51 | 214 | 0.0 | 0.0 | 0.00 | 0.00 | 0.00 | 94 | 1019.4 |
| 20260506123112 | 51 | 214 | 0.0 | 0.0 | 0.00 | 0.00 | 0.00 | 94 | 1019.4 |
| 20260506122612 | 51 | 214 | 0.0 | 0.0 | 0.00 | 0.00 | 0.00 | 94 | 1019.5 |
| 20260506121613 | 51 | 214 | 0.0 | 0.0 | 0.00 | 0.00 | 0.00 | 93 | 1019.3 |
| 20260506120613 | 51 | 214 | 0.0 | 0.0 | 0.00 | 0.00 | 0.00 | 93 | 1019.3 |
| 20260506120112 | 51 | 214 | 0.0 | 0.0 | 0.00 | 0.00 | 0.00 | 93 | 1019.2 |
| 20260506115612 | 51 | 214 | 0.0 | 0.0 | 0.00 | 0.00 | 0.00 | 93 | 1019.1 |
| 20260506115113 | 51 | 214 | 0.0 | 0.0 | 0.00 | 0.00 | 0.00 | 93 | 1019.2 |
| 20260506114612 | 51 | 214 | 0.0 | 0.0 | 0.00 | 0.01 | 0.00 | 93 | 1019.1 |
| 20260506114110 | 51 | 214 | 0.0 | 0.0 | 0.00 | 0.01 | 0.00 | 93 | 1019.0 |
| 20260506113609 | 51 | 214 | 0.0 | 0.0 | 0.00 | 0.01 | 0.00 | 93 | 1019.0 |
| 20260506113109 | 52 | 214 | 0.0 | 0.0 | 0.00 | 0.01 | 0.00 | 93 | 1019.1 |
| 20260506112608 | 52 | 214 | 0.0 | 0.0 | 0.00 | 0.01 | 0.00 | 93 | 1019.0 |
| 20260506112108 | 52 | 214 | 0.0 | 0.0 | 0.00 | 0.01 | 0.00 | 93 | 1019.1 |
| 20260506111609 | 52 | 214 | 0.0 | 0.0 | 0.00 | 0.01 | 0.00 | 93 | 1019.0 |
| 20260506111104 | 52 | 214 | 0.0 | 0.0 | 0.00 | 0.01 | 0.00 | 93 | 1019.0 |
| 20260506110604 | 52 | 214 | 0.0 | 0.0 | 0.00 | 0.01 | 0.00 | 93 | 1019.0 |
| 20260506105603 | 52 | 214 | 0.0 | 0.0 | 0.00 | 0.01 | 0.00 | 93 | 1018.9 |
| 20260506105103 | 52 | 214 | 0.0 | 0.0 | 0.00 | 0.01 | 0.00 | 93 | 1018.8 |
| 20260506104102 | 52 | 214 | 0.0 | 0.0 | 0.00 | 0.02 | 0.00 | 93 | 1018.8 |
| 20260506103601 | 52 | 214 | 0.0 | 0.0 | 0.00 | 0.02 | 0.00 | 93 | 1018.8 |
| 20260506103100 | 52 | 214 | 0.0 | 0.0 | 0.00 | 0.02 | 0.00 | 93 | 1018.8 |
| 20260506102600 | 52 | 214 | 0.0 | 0.0 | 0.00 | 0.02 | 0.00 | 93 | 1018.8 |
| 20260506102059 | 52 | 214 | 0.0 | 0.0 | 0.00 | 0.02 | 0.00 | 93 | 1018.8 |
| 20260506101557 | 52 | 214 | 0.0 | 0.0 | 0.00 | 0.02 | 0.00 | 93 | 1018.8 |
| 20260506101056 | 52 | 214 | 0.0 | 0.0 | 0.00 | 0.02 | 0.00 | 93 | 1018.9 |
| 20260506100557 | 52 | 214 | 0.0 | 0.0 | 0.00 | 0.02 | 0.00 | 93 | 1018.8 |
| 20260506100056 | 52 | 214 | 0.0 | 0.0 | 0.00 | 0.02 | 0.00 | 93 | 1018.8 |
| 20260506095556 | 52 | 214 | 0.0 | 0.0 | 0.00 | 0.02 | 0.00 | 93 | 1018.7 |
| 20260506095056 | 52 | 214 | 0.0 | 0.0 | 0.00 | 0.02 | 0.00 | 93 | 1018.7 |
| 20260506094554 | 52 | 214 | 0.0 | 0.0 | 0.00 | 0.02 | 0.00 | 92 | 1018.8 |
| 20260506094054 | 52 | 214 | 0.0 | 0.0 | 0.00 | 0.02 | 0.00 | 92 | 1018.8 |
| 20260506093554 | 52 | 214 | 0.0 | 0.0 | 0.00 | 0.02 | 0.00 | 92 | 1018.8 |
| 20260506093054 | 52 | 214 | 0.0 | 0.0 | 0.00 | 0.02 | 0.00 | 92 | 1018.8 |
| 20260506092554 | 52 | 214 | 0.0 | 0.0 | 0.00 | 0.02 | 0.00 | 92 | 1018.8 |
| 20260506092052 | 52 | 214 | 0.0 | 0.0 | 0.00 | 0.02 | 0.00 | 92 | 1018.9 |
| 20260506091552 | 52 | 214 | 0.0 | 0.0 | 0.00 | 0.02 | 0.00 | 92 | 1018.8 |
| 20260506091052 | 52 | 214 | 0.0 | 0.0 | 0.00 | 0.02 | 0.00 | 92 | 1018.7 |
| 20260506090052 | 52 | 214 | 0.0 | 0.0 | 0.00 | 0.02 | 0.00 | 92 | 1018.8 |
| 20260506085552 | 52 | 214 | 0.0 | 0.0 | 0.00 | 0.02 | 0.00 | 92 | 1018.7 |
| 20260506085052 | 52 | 214 | 0.0 | 0.0 | 0.00 | 0.02 | 0.00 | 92 | 1018.7 |
| 20260506083551 | 52 | 214 | 0.0 | 0.0 | 0.00 | 0.02 | 0.00 | 92 | 1018.7 |
| 20260506083050 | 52 | 214 | 0.0 | 0.0 | 0.00 | 0.02 | 0.00 | 92 | 1018.8 |
| 20260506082550 | 52 | 214 | 0.0 | 0.0 | 0.00 | 0.02 | 0.00 | 92 | 1018.9 |
| 20260506082049 | 52 | 214 | 0.0 | 0.0 | 0.00 | 0.02 | 0.00 | 92 | 1018.8 |
| 20260506081550 | 52 | 214 | 0.0 | 0.0 | 0.00 | 0.02 | 0.00 | 91 | 1018.9 |
| 20260506081050 | 52 | 214 | 0.0 | 0.0 | 0.00 | 0.02 | 0.00 | 91 | 1018.9 |
| 20260506073046 | 53 | 214 | 0.0 | 0.0 | 0.00 | 0.02 | 0.00 | 91 | 1018.7 |
| 20260506072546 | 53 | 214 | 0.0 | 0.0 | 0.00 | 0.02 | 0.00 | 91 | 1018.6 |
| 20260506072046 | 53 | 214 | 0.0 | 0.0 | 0.00 | 0.02 | 0.00 | 91 | 1018.6 |
| 20260506071046 | 53 | 214 | 0.0 | 0.0 | 0.00 | 0.02 | 0.00 | 90 | 1018.5 |
| 20260506070546 | 53 | 214 | 0.0 | 0.0 | 0.00 | 0.02 | 0.00 | 91 | 1018.6 |
| 20260506062039 | 53 | 214 | 0.0 | 0.0 | 0.00 | 0.02 | 0.02 | 90 | 1018.3 |
| 20260506061539 | 53 | 214 | 0.0 | 0.0 | 0.00 | 0.02 | 0.02 | 91 | 1018.2 |
| 20260506060539 | 53 | 214 | 0.0 | 0.0 | 0.00 | 0.02 | 0.02 | 90 | 1018.2 |
| 20260506051034 | 53 | 214 | 0.0 | 0.0 | 0.00 | 0.02 | 0.02 | 90 | 1017.9 |
| 20260506050535 | 53 | 214 | 0.0 | 0.0 | 0.00 | 0.02 | 0.02 | 90 | 1018.0 |
| 20260506045035 | 53 | 214 | 0.0 | 0.0 | 0.00 | 0.02 | 0.02 | 90 | 1017.9 |
| 20260506044035 | 53 | 214 | 0.0 | 0.0 | 0.00 | 0.02 | 0.02 | 90 | 1017.8 |
| 20260506043535 | 53 | 214 | 0.0 | 0.0 | 0.00 | 0.02 | 0.02 | 90 | 1017.8 |
| 20260506043034 | 53 | 214 | 0.0 | 0.0 | 0.00 | 0.02 | 0.02 | 89 | 1017.8 |
| 20260506042534 | 53 | 214 | 0.0 | 0.0 | 0.00 | 0.02 | 0.02 | 89 | 1017.8 |
| 20260506041534 | 53 | 214 | 0.0 | 0.0 | 0.00 | 0.02 | 0.02 | 89 | 1017.6 |